FW5164 Weather Reports


time (UTC)temp
C
wind
direction
speed
KPH
gust
KPH
rain 1hr
cm
rain 24hr
cm
rain mn
cm
humidity
%
barometer
mb
20260506134601 14 295 16.1 24.1 0.00 0.03 0.03 86 1013.4
20260506134549 13 57 8.0 14.5 0.00 0.00 0.00 88 1013.4
20260506134050 14 277 14.5 27.4 0.00 0.03 0.03 87 1013.2
20260506133550 14 267 14.5 27.4 0.00 0.03 0.03 87 1013.2
20260506133105 14 291 14.5 25.7 0.00 0.03 0.03 88 1013.1
20260506133058 13 22 6.4 12.9 0.00 0.00 0.00 88 1013.1
20260506132549 14 312 16.1 25.7 0.00 0.03 0.03 88 1012.8
20260506132054 14 281 14.5 24.1 0.00 0.03 0.03 89 1013.0
20260506131557 14 277 14.5 24.1 0.00 0.03 0.03 89 1012.7
20260506131050 14 285 14.5 25.7 0.00 0.03 0.03 90 1012.5
20260506130550 14 269 12.9 25.7 0.00 0.03 0.03 90 1012.7
20260506130058 13 36 8.0 17.7 0.00 0.00 0.00 88 1013.0
20260506130054 14 273 12.9 24.1 0.00 0.03 0.03 90 1012.6
20260506125550 15 267 12.9 20.9 0.00 0.03 0.03 90 1012.5
20260506125050 15 293 3.2 12.9 0.00 0.03 0.03 91 1012.4
20260506124553 15 324 4.8 16.1 0.00 0.03 0.03 91 1012.1
20260506124550 13 13 9.7 16.1 0.00 0.00 0.00 88 1012.8
20260506124052 15 303 8.0 17.7 0.00 0.03 0.03 91 1012.0
20260506123551 15 332 9.7 17.7 0.00 0.03 0.03 91 1012.1
20260506123053 15 331 11.3 22.5 0.00 0.03 0.03 91 1012.1
20260506123049 14 25 8.0 17.7 0.00 0.00 0.00 88 1012.5
20260506122550 15 293 14.5 22.5 0.00 0.03 0.03 91 1012.1
20260506122050 15 291 11.3 19.3 0.00 0.03 0.03 91 1012.1
20260506121557 14 19 6.4 19.3 0.00 0.00 0.00 87 1012.2
20260506121549 15 300 11.3 20.9 0.00 0.03 0.03 91 1011.9
20260506121050 15 289 14.5 20.9 0.00 0.03 0.03 90 1011.8
20260506120550 15 321 12.9 19.3 0.00 0.03 0.03 90 1011.8
20260506120058 15 315 11.3 19.3 0.03 0.03 0.03 90 1011.8
20260506120048 14 54 9.7 19.3 0.00 0.00 0.00 87 1012.0
20260506115553 15 294 9.7 20.9 0.03 0.03 0.03 90 1011.7
20260506115050 15 276 12.9 24.1 0.03 0.03 0.03 90 1011.6
20260506114553 15 33 8.0 17.7 0.00 0.00 0.00 87 1011.8
20260506114050 15 307 11.3 22.5 0.03 0.03 0.03 90 1011.5
20260506113549 15 298 12.9 24.1 0.03 0.03 0.03 90 1011.4
20260506113053 15 275 12.9 25.7 0.03 0.03 0.03 90 1011.4
20260506113049 15 20 9.7 16.1 0.00 0.00 0.00 86 1011.4
20260506112551 16 299 17.7 25.7 0.03 0.03 0.03 90 1011.4
20260506112049 16 343 16.1 24.1 0.03 0.03 0.03 90 1011.2
20260506111554 15 17 6.4 14.5 0.00 0.00 0.00 86 1011.3
20260506111053 16 320 14.5 22.5 0.03 0.03 0.03 89 1011.0
20260506110550 16 336 12.9 19.3 0.03 0.03 0.03 89 1010.8
20260506110054 16 332 11.3 19.3 0.00 0.00 0.00 89 1010.8
20260506105551 16 300 12.9 19.3 0.00 0.00 0.00 89 1010.4
20260506105053 16 328 9.7 19.3 0.00 0.00 0.00 89 1010.4
20260506104556 16 44 9.7 16.1 0.00 0.00 0.00 84 1010.9
20260506104049 16 296 14.5 25.7 0.00 0.00 0.00 88 1010.4
20260506103549 16 300 12.9 25.7 0.00 0.00 0.00 88 1010.4
20260506103101 17 38 6.4 16.1 0.00 0.00 0.00 83 1010.3
20260506103052 17 311 12.9 20.9 0.00 0.00 0.00 88 1010.3
20260506102550 17 327 12.9 20.9 0.00 0.00 0.00 88 1010.2
20260506102050 17 298 12.9 20.9 0.00 0.00 0.00 88 1010.2
20260506101552 17 301 14.5 25.7 0.00 0.00 0.00 87 1010.2
20260506101550 18 42 11.3 19.3 0.00 0.00 0.00 82 1010.0
20260506101052 17 318 11.3 25.7 0.00 0.00 0.00 87 1010.0
20260506100550 17 287 16.1 24.1 0.00 0.00 0.00 87 1009.9
20260506100053 19 41 12.9 20.9 0.00 0.00 0.00 80 1009.9
20260506095550 18 300 12.9 25.7 0.00 0.00 0.00 86 1009.7
20260506095054 18 274 11.3 24.1 0.00 0.00 0.00 85 1009.7
20260506094611 18 304 14.5 25.7 0.00 0.00 0.00 85 1009.6
20260506094601 21 21 9.7 17.7 0.00 0.00 0.00 81 1009.6
20260506094052 18 296 14.5 25.7 0.00 0.00 0.00 84 1009.6
20260506093553 19 290 16.1 25.7 0.00 0.00 0.00 84 1009.6
20260506093051 20 285 16.1 25.7 0.00 0.00 0.00 83 1009.5
20260506093049 23 0 0.0 8.0 0.00 0.00 0.00 86 1009.4
20260506092550 20 305 14.5 22.5 0.00 0.00 0.00 83 1009.3
20260506092050 20 309 9.7 22.5 0.00 0.00 0.00 83 1009.3
20260506091554 21 292 9.7 20.9 0.00 0.00 0.00 83 1009.2
20260506091549 23 245 3.2 12.9 0.00 0.00 0.00 86 1009.3
20260506091050 21 303 11.3 20.9 0.00 0.00 0.00 83 1009.1
20260506090549 22 279 8.0 17.7 0.00 0.00 0.00 84 1009.2
20260506090051 23 144 6.4 11.3 0.00 0.00 0.00 87 1009.1
20260506085549 23 154 3.2 14.5 0.00 0.00 0.00 87 1008.9
20260506085053 23 146 3.2 14.5 0.00 0.00 0.00 87 1009.1
20260506084602 23 234 3.2 14.5 0.00 0.00 0.00 86 1009.4
20260506084557 23 144 8.0 14.5 0.00 0.00 0.00 87 1009.1
20260506084050 23 153 6.4 16.1 0.00 0.00 0.00 87 1009.1
20260506083553 23 165 6.4 16.1 0.00 0.00 0.00 87 1009.0
20260506083057 23 139 6.4 17.7 0.00 0.00 0.00 87 1009.0
20260506083050 23 241 3.2 12.9 0.00 0.00 0.00 86 1009.2
20260506082550 23 163 8.0 19.3 0.00 0.00 0.00 87 1009.0
20260506082050 23 130 6.4 19.3 0.00 0.00 0.00 86 1009.0
20260506081548 23 150 9.7 19.3 0.00 0.00 0.00 86 1009.0
20260506081051 23 140 9.7 22.5 0.00 0.00 0.00 86 1009.1
20260506080551 23 163 14.5 22.5 0.00 0.00 0.00 86 1009.0
20260506080106 23 145 9.7 17.7 0.00 0.00 0.00 86 1009.0
20260506073106 23 153 12.9 20.9 0.00 0.00 0.00 86 1009.2
20260506073059 23 246 1.6 6.4 0.00 0.00 0.00 86 1009.6
20260506072550 23 109 11.3 22.5 0.00 0.00 0.00 86 1009.3
20260506072048 23 167 14.5 22.5 0.00 0.00 0.00 86 1009.3
20260506071555 23 246 3.2 6.4 0.00 0.00 0.00 86 1009.5
20260506071053 23 140 9.7 17.7 0.00 0.00 0.00 86 1009.4
20260506070550 23 138 8.0 17.7 0.00 0.00 0.00 86 1009.3
20260506062049 23 141 9.7 16.1 0.00 0.00 0.00 85 1009.1
20260506061556 23 147 9.7 16.1 0.00 0.00 0.00 85 1009.2
20260506061049 23 134 6.4 17.7 0.00 0.00 0.00 85 1009.2
20260506060549 23 131 8.0 17.7 0.00 0.00 0.00 85 1009.2
20260506051049 24 132 9.7 20.9 0.00 0.00 0.00 84 1008.6
20260506050550 24 147 12.9 20.9 0.00 0.00 0.00 83 1008.6
20260506050110 24 243 6.4 16.1 0.00 0.00 0.00 84 1008.6
20260506045049 24 145 11.3 22.5 0.00 0.00 0.00 83 1008.4
20260506044558 24 111 11.3 22.5 0.00 0.00 0.00 83 1008.5
20260506044554 24 209 9.7 19.3 0.00 0.00 0.00 84 1008.7
20260506044049 24 132 12.9 22.5 0.00 0.00 0.00 83 1008.5
20260506043549 24 115 12.9 22.5 0.00 0.00 0.00 83 1008.4
20260506043059 24 234 6.4 16.1 0.00 0.00 0.00 84 1008.6
20260506043049 24 136 12.9 22.5 0.00 0.00 0.00 83 1008.6
20260506042550 24 143 12.9 22.5 0.00 0.00 0.00 83 1008.4
20260506042049 24 131 12.9 24.1 0.00 0.00 0.00 83 1008.4
20260506041600 24 230 6.4 12.9 0.00 0.00 0.00 83 1008.7
20260506041556 24 145 12.9 24.1 0.00 0.00 0.00 83 1008.3
20260506041049 24 150 12.9 24.1 0.00 0.00 0.00 83 1008.4
20260506040549 24 126 8.0 22.5 0.00 0.00 0.00 83 1008.1
20260506040104 24 225 4.8 9.7 0.00 0.00 0.00 83 1008.7
20260506040052 24 153 12.9 22.5 0.00 0.00 0.00 83 1008.3
20260506035550 24 132 11.3 19.3 0.00 0.00 0.00 82 1008.1
20260506035049 24 116 11.3 19.3 0.00 0.00 0.00 82 1008.0
20260506034604 24 233 3.2 11.3 0.00 0.00 0.00 83 1008.6
20260506034557 24 106 11.3 19.3 0.00 0.00 0.00 82 1008.0
20260506034049 24 115 9.7 19.3 0.00 0.00 0.00 82 1008.2
20260506033549 24 137 4.8 14.5 0.00 0.00 0.00 82 1007.8
20260506033101 24 140 8.0 17.7 0.00 0.00 0.00 81 1007.9
20260506033055 24 232 8.0 17.7 0.00 0.00 0.00 83 1007.7
20260506032550 25 131 8.0 17.7 0.00 0.00 0.00 81 1007.6
20260506032050 25 130 9.7 19.3 0.00 0.00 0.00 80 1007.5
20260506031600 24 204 8.0 16.1 0.00 0.00 0.00 83 1007.5
20260506031555 25 121 11.3 24.1 0.00 0.00 0.00 80 1007.2
20260506031049 25 136 11.3 24.1 0.00 0.00 0.00 80 1007.2
20260506030552 25 134 12.9 20.9 0.00 0.00 0.00 80 1007.1
20260506025549 25 142 9.7 20.9 0.00 0.00 0.00 80 1006.7
20260506025053 25 115 11.3 24.1 0.00 0.00 0.00 79 1006.7
20260506024610 25 145 12.9 24.1 0.00 0.00 0.00 79 1006.6
20260506024559 24 188 3.2 8.0 0.00 0.00 0.00 82 1006.9
20260506024049 25 108 14.5 22.5 0.00 0.00 0.00 79 1006.5
20260506023551 25 142 14.5 20.9 0.00 0.00 0.00 79 1006.2
20260506023102 25 109 11.3 20.9 0.00 0.00 0.00 79 1006.3
20260506023056 25 217 4.8 12.9 0.00 0.00 0.00 81 1006.8
20260506022549 25 125 11.3 17.7 0.00 0.00 0.00 78 1006.4
20260506022050 25 118 8.0 17.7 0.00 0.00 0.00 78 1006.7
20260506021603 25 221 6.4 9.7 0.00 0.00 0.00 81 1006.8
20260506021559 25 123 11.3 17.7 0.00 0.00 0.00 78 1006.7
20260506021048 25 132 8.0 16.1 0.00 0.00 0.00 78 1006.7
20260506020549 25 146 6.4 14.5 0.00 0.00 0.00 78 1006.6
20260506020052 25 214 6.4 9.7 0.00 0.00 0.00 80 1006.7
20260506015551 25 133 6.4 17.7 0.00 0.00 0.00 78 1006.6
20260506015049 25 146 6.4 17.7 0.00 0.00 0.00 77 1006.4
20260506014554 25 237 3.2 6.4 0.00 0.00 0.00 79 1006.6
20260506014051 25 119 6.4 19.3 0.00 0.00 0.00 77 1006.3
20260506013550 25 98 8.0 19.3 0.00 0.00 0.00 76 1006.4
20260506013059 26 119 8.0 19.3 0.00 0.00 0.00 76 1006.3
20260506013057 26 240 3.2 8.0 0.00 0.00 0.00 78 1006.7
20260506012549 26 114 6.4 16.1 0.00 0.00 0.00 75 1006.2
20260506012050 26 132 4.8 19.3 0.00 0.00 0.00 75 1006.3
20260506011620 26 132 9.7 25.7 0.00 0.00 0.00 75 1006.2
20260506011603 26 240 3.2 8.0 0.00 0.00 0.00 76 1006.5
20260506011052 26 150 9.7 25.7 0.00 0.00 0.00 74 1006.2
20260506010549 26 119 11.3 25.7 0.00 0.00 0.00 74 1006.0
20260506010056 26 144 14.5 24.1 0.00 0.00 0.00 74 1005.9
20260506010051 26 260 6.4 11.3 0.00 0.00 0.00 75 1006.3
20260506005550 26 137 11.3 20.9 0.00 0.00 0.00 74 1006.0
20260506005052 26 115 12.9 22.5 0.00 0.00 0.00 73 1005.8
20260506004548 26 130 12.9 27.4 0.00 0.00 0.00 73 1005.7
20260506004049 26 125 9.7 27.4 0.00 0.00 0.00 73 1005.9
20260506003550 26 148 14.5 33.8 0.00 0.00 0.00 73 1005.9
20260506003056 27 140 12.9 33.8 0.00 0.00 0.00 72 1005.9
20260506003053 27 240 4.8 14.5 0.00 0.00 0.00 72 1006.2
20260506002549 27 101 12.9 35.4 0.00 0.00 0.00 72 1005.7
20260506002049 27 109 20.9 35.4 0.00 0.00 0.00 71 1005.8
20260506001557 27 130 14.5 25.7 0.00 0.00 0.00 71 1005.9
20260506001554 27 218 8.0 14.5 0.00 0.00 0.00 71 1006.1
20260506001050 27 136 14.5 29.0 0.00 0.00 0.00 71 1005.8
20260506000549 27 135 16.1 29.0 0.00 0.00 0.00 71 1005.9
20260506000101 27 126 16.1 27.4 0.00 0.00 0.00 70 1006.2
20260506000055 28 238 9.7 19.3 0.00 0.00 0.00 71 1006.2
20260505235549 27 137 16.1 29.0 0.00 0.00 0.00 70 1006.0
20260505235049 27 143 14.5 29.0 0.00 0.00 0.00 70 1005.9
20260505234606 28 229 6.4 14.5 0.00 0.00 0.00 71 1006.2
20260505234554 27 108 11.3 27.4 0.00 0.00 0.00 70 1005.9
20260505234053 27 137 17.7 29.0 0.00 0.00 0.00 69 1005.9
20260505233549 27 134 16.1 35.4 0.00 0.00 0.00 70 1005.9
20260505233058 27 138 17.7 35.4 0.00 0.00 0.00 70 1005.7
20260505233053 28 259 8.0 19.3 0.00 0.00 0.00 71 1006.0
20260505232549 28 132 19.3 35.4 0.00 0.00 0.00 69 1005.6
20260505232050 28 110 17.7 30.6 0.00 0.00 0.00 68 1005.6
20260505231606 27 217 9.7 25.7 0.00 0.00 0.00 71 1005.7
20260505231600 28 166 17.7 30.6 0.00 0.00 0.00 69 1005.4
20260505231049 27 152 14.5 30.6 0.00 0.00 0.00 69 1005.2
20260505230549 27 157 17.7 30.6 0.00 0.00 0.00 69 1005.4
20260505230053 28 244 9.7 19.3 0.00 0.00 0.00 70 1005.5
20260505225549 27 135 12.9 35.4 0.00 0.00 0.00 69 1005.4
20260505225049 28 155 20.9 40.2 0.00 0.00 0.00 69 1005.3
20260505224555 28 137 22.5 41.8 0.00 0.00 0.00 68 1005.4
20260505224550 28 205 11.3 30.6 0.00 0.00 0.00 70 1005.6
20260505224049 28 93 22.5 41.8 0.00 0.00 0.00 68 1005.2
20260505223550 28 98 16.1 32.2 0.00 0.00 0.00 70 1005.2
20260505223102 28 248 9.7 22.5 0.00 0.00 0.00 71 1005.5
20260505223057 28 131 19.3 32.2 0.00 0.00 0.00 68 1005.3
20260505222549 28 137 19.3 35.4 0.00 0.00 0.00 69 1005.2
20260505222049 28 111 19.3 35.4 0.00 0.00 0.00 69 1005.3
20260505221602 28 138 19.3 35.4 0.00 0.00 0.00 69 1005.2
20260505221557 28 264 8.0 29.0 0.00 0.00 0.00 71 1005.6
20260505221049 28 130 19.3 35.4 0.00 0.00 0.00 70 1005.3
20260505220549 28 131 17.7 40.2 0.00 0.00 0.00 69 1005.4
20260505220107 27 117 19.3 40.2 0.00 0.00 0.00 70 1005.4
20260505220055 27 248 9.7 27.4 0.00 0.00 0.00 71 1005.8
20260505215549 27 138 17.7 33.8 0.00 0.00 0.00 69 1005.5
20260505215049 28 140 17.7 37.0 0.00 0.00 0.00 70 1005.6
20260505214613 27 221 9.7 27.4 0.00 0.00 0.00 71 1006.0
20260505214554 27 125 22.5 40.2 0.00 0.00 0.00 70 1005.5
20260505214049 27 110 17.7 40.2 0.00 0.00 0.00 69 1005.7
20260505213548 28 150 22.5 40.2 0.00 0.00 0.00 68 1005.9
20260505213101 28 245 9.7 22.5 0.00 0.00 0.00 71 1006.3
20260505213056 28 147 19.3 37.0 0.00 0.00 0.00 68 1005.8
20260505212548 28 177 19.3 41.8 0.00 0.00 0.00 69 1005.9
20260505212050 28 137 16.1 41.8 0.00 0.00 0.00 69 1005.9
20260505211611 28 123 17.7 35.4 0.00 0.00 0.00 68 1006.0
20260505211558 27 226 12.9 32.2 0.00 0.00 0.00 70 1006.4
20260505211050 28 128 20.9 35.4 0.00 0.00 0.00 69 1006.0
20260505210550 28 143 19.3 35.4 0.00 0.00 0.00 69 1006.1
20260505210058 28 92 17.7 35.4 0.00 0.00 0.00 69 1006.2
20260505210055 28 275 11.3 20.9 0.00 0.00 0.00 70 1006.6
20260505205549 28 162 16.1 37.0 0.00 0.00 0.00 69 1006.4
20260505205049 28 130 14.5 37.0 0.00 0.00 0.00 70 1006.4
20260505204611 28 135 19.3 37.0 0.00 0.00 0.00 68 1006.5
20260505204553 28 259 14.5 27.4 0.00 0.00 0.00 70 1006.8
20260505204049 28 158 19.3 35.4 0.00 0.00 0.00 68 1006.6
20260505203552 28 128 14.5 35.4 0.00 0.00 0.00 68 1006.5
20260505203106 28 148 19.3 40.2 0.00 0.00 0.00 70 1006.5
20260505203050 27 219 9.7 22.5 0.00 0.00 0.00 71 1006.9
20260505202549 27 131 19.3 40.2 0.00 0.00 0.00 69 1006.5
20260505202049 27 116 19.3 33.8 0.00 0.00 0.00 69 1006.5
20260505201600 27 128 19.3 32.2 0.00 0.00 0.00 71 1006.6
20260505201554 28 257 9.7 32.2 0.00 0.00 0.00 71 1006.9
20260505201049 27 122 16.1 32.2 0.00 0.00 0.00 71 1006.5
20260505200551 27 148 19.3 41.8 0.00 0.00 0.00 69 1006.5
20260505200058 27 261 8.0 29.0 0.00 0.00 0.00 72 1006.9
20260505200055 28 168 24.1 41.8 0.00 0.00 0.00 68 1006.6
20260505195548 28 143 19.3 37.0 0.00 0.00 0.00 68 1006.6
20260505195048 28 165 19.3 37.0 0.00 0.00 0.00 68 1006.6
20260505194600 28 136 20.9 35.4 0.00 0.00 0.00 70 1006.5
20260505194547 27 239 14.5 24.1 0.00 0.00 0.00 72 1007.1
20260505194050 27 151 22.5 37.0 0.00 0.00 0.00 70 1006.8
20260505193551 27 129 22.5 38.6 0.00 0.00 0.00 68 1006.9
20260505193056 27 110 17.7 38.6 0.00 0.00 0.00 70 1006.9
20260505193049 27 265 14.5 25.7 0.00 0.00 0.00 72 1007.2
20260505192550 27 142 19.3 35.4 0.00 0.00 0.00 70 1007.0
20260505192049 27 163 17.7 32.2 0.00 0.00 0.00 71 1006.9
20260505191555 27 142 19.3 40.2 0.00 0.00 0.00 71 1007.1
20260505191551 26 229 12.9 32.2 0.00 0.00 0.00 73 1007.2
20260505191049 27 151 20.9 40.2 0.00 0.00 0.00 71 1006.9
20260505190548 26 146 20.9 38.6 0.00 0.00 0.00 72 1007.0
20260505190056 26 109 22.5 40.2 0.00 0.00 0.00 72 1006.8
20260505190050 26 254 11.3 30.6 0.00 0.00 0.00 74 1007.3
20260505185550 26 127 22.5 49.9 0.00 0.00 0.00 72 1006.8
20260505185049 26 144 22.5 49.9 0.00 0.00 0.00 71 1006.8
20260505184555 26 126 24.1 41.8 0.00 0.00 0.00 71 1007.0
20260505184551 26 245 16.1 38.6 0.00 0.00 0.00 75 1007.4
20260505184049 26 142 17.7 46.7 0.00 0.00 0.00 71 1007.1
20260505183552 26 131 25.7 46.7 0.00 0.00 0.00 71 1007.2
20260505183102 26 256 14.5 30.6 0.00 0.00 0.00 74 1007.8
20260505183056 26 119 20.9 45.1 0.00 0.00 0.00 72 1007.2
20260505182549 26 143 24.1 45.1 0.00 0.00 0.00 71 1007.2
20260505182049 26 162 17.7 35.4 0.00 0.00 0.00 71 1007.3
20260505181553 26 228 14.5 37.0 0.00 0.00 0.00 76 1008.0
20260505181050 26 173 19.3 45.1 0.00 0.00 0.00 72 1007.5
20260505180549 25 134 29.0 45.1 0.00 0.00 0.00 74 1007.4
20260505180056 25 149 22.5 45.1 0.00 0.00 0.00 74 1007.4
20260505180053 26 276 17.7 37.0 0.00 0.00 0.00 75 1007.8
20260505175549 25 138 29.0 45.1 0.00 0.00 0.00 73 1007.5
20260505175049 26 157 25.7 49.9 0.00 0.00 0.00 73 1007.6
20260505174558 26 249 14.5 32.2 0.00 0.00 0.00 76 1007.9
20260505174551 26 160 27.4 49.9 0.00 0.00 0.00 74 1007.4
20260505174048 26 151 27.4 57.9 0.00 0.00 0.00 73 1007.6
20260505173548 26 151 27.4 57.9 0.00 0.00 0.00 72 1007.6
20260505173054 25 241 17.7 33.8 0.00 0.00 0.00 77 1008.1
20260505173049 26 134 24.1 46.7 0.00 0.00 0.00 73 1007.4
20260505172548 25 119 27.4 46.7 0.00 0.00 0.00 73 1007.5
20260505172048 25 90 27.4 46.7 0.00 0.00 0.00 73 1007.4
20260505171554 25 244 14.5 32.2 0.00 0.00 0.00 78 1007.9
20260505171551 25 119 24.1 51.5 0.00 0.00 0.00 75 1007.4
20260505171050 25 139 25.7 51.5 0.00 0.00 0.00 75 1007.5
20260505170549 25 171 24.1 48.3 0.00 0.00 0.00 76 1007.4
20260505170050 24 155 27.4 48.3 0.00 0.00 0.00 76 1007.5
20260505165549 24 148 30.6 46.7 0.00 0.00 0.00 76 1007.5
20260505165049 24 127 29.0 43.5 0.00 0.00 0.00 76 1007.7
20260505164600 24 163 17.7 43.5 0.00 0.00 0.00 77 1007.8
20260505164049 24 134 27.4 43.5 0.00 0.00 0.00 78 1007.7
20260505163549 23 140 24.1 46.7 0.00 0.00 0.00 78 1007.9
20260505163050 23 265 12.9 32.2 0.00 0.00 0.00 80 1008.3
20260505162548 23 148 24.1 46.7 0.00 0.00 0.00 78 1008.0
20260505162049 23 149 16.1 38.6 0.00 0.00 0.00 79 1008.1
20260505161602 23 283 11.3 30.6 0.00 0.00 0.00 80 1008.3
20260505161556 23 186 20.9 40.2 0.00 0.00 0.00 79 1008.0
20260505161049 23 146 17.7 45.1 0.00 0.00 0.00 79 1008.0
20260505160551 23 124 22.5 45.1 0.00 0.00 0.00 79 1008.0
20260505153107 23 146 17.7 37.0 0.00 0.00 0.00 80 1007.8
20260505153100 23 277 14.5 29.0 0.00 0.00 0.00 81 1008.1
20260505152552 23 126 20.9 37.0 0.00 0.00 0.00 80 1007.8
20260505152051 23 162 20.9 38.6 0.00 0.00 0.00 80 1007.9
20260505151603 22 233 14.5 24.1 0.00 0.00 0.00 81 1008.2
20260505151552 22 121 22.5 38.6 0.00 0.00 0.00 80 1007.8
20260505151049 22 166 20.9 38.6 0.00 0.00 0.00 80 1007.8
20260505150549 22 136 16.1 40.2 0.00 0.00 0.00 80 1007.9
20260505140549 22 146 19.3 37.0 0.00 0.00 0.00 82 1007.7
20260505140110 22 249 11.3 25.7 0.00 0.00 0.00 81 1008.1